This is the latest recevied weather packets stored in our database for station/object G0TGD-10. If no packets are shown the sender has not sent any weather packets the latest 10 day(s).
| Time | Temp. | Humidity | Pressure | Rain* | Wind** | Luminosity | Snow |
|---|---|---|---|---|---|---|---|
| 1777953075 | 3.33° C | 79% | 1014.2 hPa | - | - | - | - |
| 1777952175 | 3.33° C | 79% | 1014.1 hPa | - | - | - | - |
| 1777951275 | 3.33° C | 79% | 1014.3 hPa | - | - | - | - |
| 1777950375 | 3.89° C | 79% | 1014.3 hPa | - | - | - | - |
| 1777949475 | 3.89° C | 79% | 1014.3 hPa | - | - | - | - |
| 1777948575 | 3.89° C | 79% | 1014.4 hPa | - | - | - | - |
| 1777947675 | 3.89° C | 79% | 1014.3 hPa | - | - | - | - |
| 1777946774 | 4.44° C | 79% | 1014.5 hPa | - | - | - | - |
| 1777945874 | 4.44° C | 79% | 1014.6 hPa | - | - | - | - |
| 1777944974 | 4.44° C | 79% | 1014.7 hPa | - | - | - | - |
| 1777944074 | 5° C | 78% | 1014.8 hPa | - | - | - | - |
| 1777943174 | 5° C | 78% | 1014.8 hPa | - | - | - | - |
| 1777942274 | 5° C | 78% | 1014.9 hPa | - | - | - | - |
| 1777941374 | 5° C | 78% | 1015.1 hPa | - | - | - | - |
| 1777940474 | 5° C | 78% | 1015.2 hPa | - | - | - | - |
| 1777939574 | 5° C | 78% | 1015.2 hPa | - | - | - | - |
| 1777938674 | 5.56° C | 77% | 1015.3 hPa | - | - | - | - |
| 1777937774 | 5.56° C | 77% | 1015.4 hPa | - | - | - | - |
| 1777936874 | 6.11° C | 77% | 1015.4 hPa | - | - | - | - |
| 1777935973 | 6.11° C | 77% | 1015.4 hPa | - | - | - | - |
| 1777935073 | 6.67° C | 77% | 1015.4 hPa | - | - | - | - |
| 1777934173 | 6.67° C | 77% | 1015.5 hPa | - | - | - | - |
| 1777933273 | 7.22° C | 76% | 1015.6 hPa | - | - | - | - |
| 1777932373 | 7.22° C | 76% | 1015.7 hPa | - | - | - | - |
| 1777931473 | 7.22° C | 76% | 1015.7 hPa | - | - | - | - |
* Rain since midnight (hover to see other rain measurements)
** Current wind speed in m/s (hover to see current wind gust speed)